Weather Roundup
Issued by NWS Chicago, IL

Home | Current Version | Previous Version | Text Only | Print | Product List | Glossary On
Versions: 1 2 3 4 5 6 7 8 9 10 11 12 13 14 15 16 17 18 19 20 21 22 23 24 25 26 27 28 29 30 31 32 33 34 35 36 37 38 39 40 41 42 43 44 45 46 47 48 49 50
000
NZUS59 KLOT 281410
HRRLOT

CHICAGO AREA WEATHER ROUNDUP
NATIONAL WEATHER SERVICE CHICAGO/ROMEOVILLE IL
900 AM CDT MON JUL 28 2014

NOTE: "FAIR" INDICATES FEW OR NO CLOUDS BELOW 12,000 FEET WITH NO
SIGNIFICANT WEATHER AND/OR OBSTRUCTIONS TO VISIBILITY.

* THESE STATIONS ARE NOT UNDER NWS QUALITY CONTROL. THEY ALSO MAY NOT
  REPORT WEATHER SUCH AS PRECIPITATION OR FOG.

ILZ005-006-012>014-019>023-281500-
NORTHEAST ILLINOIS

CITY           SKY/WX    TMP DP  RH WIND       PRES   REMARKS
OHARE          MOSUNNY   63  47  55 N16       30.05R
MIDWAY         MOSUNNY   64  50  60 N15       30.05R
AURORA         SUNNY     62  49  62 N16G24    30.07R
LANSING*       PTSUNNY   63  51  66 N15G25    30.04R
JOLIET*        SUNNY     63  50  63 N8        30.07R
WAUKEGAN       SUNNY     59  45  59 N14G20    30.06R
DUPAGE AIRPORT SUNNY     63  49  60 N15       30.06R
WHEELING       SUNNY     63  48  58 N14       30.07R
KANKAKEE*      SUNNY     64  54  71 NW9       30.05R
MORRIS*        SUNNY     63  53  70 N3        30.06R
LEWIS AIRPORT* SUNNY     63  50  63 N9G16     30.06R
NORTHERLY IS     N/A     61  50  67 MISG        N/A
$$

WIZ051-052-058>065-066-070>072-281500-
SOUTHEAST WISCONSIN

CITY           SKY/WX    TMP DP  RH WIND       PRES   REMARKS
MILWAUKEE      MOSUNNY   59  44  57 N17G29    30.08R
KENOSHA*       SUNNY     59  46  62 N12G21    30.08R
RACINE*        MOSUNNY   59  47  64 N21G29    30.09R
BURLINGTON     MOSUNNY   58  47  67 N13G24    30.09R
WEST BEND      SUNNY     59  43  55 N15       30.09R
$$

INZ001>003-010>013-019-020-281500-
NORTHWEST INDIANA

CITY           SKY/WX    TMP DP  RH WIND       PRES   REMARKS
GARY*          PTSUNNY   64  54  68 NW17G30   30.04R
MICHIGAN CITY* NOT AVBL
RENSSELAER*    NOT AVBL
VALPARAISO     CLOUDY    60  53  77 N9G18     30.03R
$$

LMZ740>746-281500-
SOUTHERN LAKE MICHIGAN

STATION/POSITION TIME  SKY/WX   TEMP WIND        PRES    VSBY
                                AIR  DIR/SP/G
                 (UTC)          (F)  (DEG/KT/KT) (MB)    (MI)
HARRISON CRIB    1400            59  340/ 23/ 27   N/A
BURNHAM HARBOR   1400            61  350/ 16/ 17   N/A
CALUMET HARBOR   1400            61  330/  8/ 14 1016.1S
BURNS HARBOR     NOT AVBL
MICHIGAN CITY    1400            60  340/ 24/ 29   N/A
$$

ABBREVIATIONS USED IN REMARKS
   TC - TEMPERATURE IN CELSIUS
  WCI - WIND CHILL INDEX
   HX - HEAT INDEX
  VSB - VISIBILITY
$$


USA.gov is the U.S. government's official web portal to all federal, state and local government web resources and services.